,,PA_Meas_PMT16A,,PR_Meas_QMR101_102,,RH_Meas_QMH101,,SR_Meas_QMS101,,TA_Meas_QMH101,,GenWind,,GenWind,
time,status,PA,status,PR,status,RH,status,SR,status,TA,status,DirAvg,status,SpdAvg,
2016-07-08, 06:56:04,VALID,918.487,VALID,0,INVALID,112.331,VALID,82.4074,VALID,19.2753,VALID,156,VALID,0,
2016-07-08, 07:09:04,VALID,918.611,VALID,0,INVALID,112.91,VALID,118.937,VALID,19.5678,VALID,145,VALID,1.49219,
2016-07-08, 07:10:04,VALID,918.575,VALID,0,INVALID,112.994,VALID,122.161,VALID,19.5468,VALID,142,VALID,1.12891,
2016-07-08, 07:11:04,VALID,918.572,VALID,0,INVALID,112.987,VALID,115.929,VALID,19.6458,VALID,141,VALID,0.378125,
2016-07-08, 07:12:04,VALID,918.565,VALID,0,INVALID,113.071,VALID,124.202,VALID,19.7028,VALID,144,VALID,1.0918,
2016-07-08, 07:13:04,VALID,918.545,VALID,0,INVALID,113.17,VALID,121.516,VALID,19.7613,VALID,130,VALID,0.912109,
2016-07-08, 07:14:04,VALID,918.553,VALID,0,INVALID,113.261,VALID,109.16,VALID,19.8588,VALID,126,VALID,0.593359,
2016-07-08, 07:15:04,VALID,918.541,VALID,0,INVALID,113.497,VALID,131.078,VALID,19.8993,VALID,127,VALID,0.921094,
2016-07-08, 07:16:04,VALID,918.583,VALID,0,INVALID,113.696,VALID,111.416,VALID,19.9173,VALID,129,VALID,0.965234,
2016-07-08, 07:17:04,VALID,918.57,VALID,0,INVALID,113.932,VALID,128.714,VALID,19.9563,VALID,138,VALID,1.33047,
2016-07-08, 07:18:04,VALID,918.594,VALID,0,INVALID,114.107,VALID,125.384,VALID,19.9563,VALID,155,VALID,1.28359,
2016-07-08, 07:19:04,VALID,918.628,VALID,0,INVALID,114.275,VALID,119.152,VALID,19.9758,VALID,152,VALID,1.33086,
2016-07-08, 07:20:04,VALID,918.65,VALID,0,INVALID,114.405,VALID,132.797,VALID,19.9953,VALID,170,VALID,1.08359,
2016-07-08, 07:21:04,VALID,918.639,VALID,0,INVALID,114.527,VALID,140.963,VALID,20.0148,VALID,140,VALID,1.03555,
2016-07-08, 07:22:04,VALID,918.624,VALID,0,INVALID,114.603,VALID,137.954,VALID,20.0733,VALID,131,VALID,0.0195313,
2016-07-08, 07:23:04,VALID,918.6,VALID,0,INVALID,114.694,VALID,142.037,VALID,20.1513,VALID,159,VALID,1.07461,
2016-07-08, 07:24:04,VALID,918.565,VALID,0,INVALID,114.908,VALID,146.227,VALID,20.1303,VALID,147,VALID,1.62148,
2016-07-08, 07:25:04,VALID,918.57,VALID,0,INVALID,114.984,VALID,144.293,VALID,20.1498,VALID,119,VALID,1.67969,
2016-07-08, 07:26:04,VALID,918.585,VALID,0,INVALID,115.022,VALID,150.847,VALID,20.2098,VALID,141,VALID,1.18555,
2016-07-08, 07:27:04,VALID,918.571,VALID,0,INVALID,115.114,VALID,153.533,VALID,20.2083,VALID,145,VALID,1.49883,
2016-07-08, 07:28:04,VALID,918.589,VALID,0,INVALID,115.053,VALID,155.79,VALID,20.2668,VALID,120,VALID,0.513672,
2016-07-08, 07:29:04,VALID,918.62,VALID,0,INVALID,115.068,VALID,159.12,VALID,20.3854,VALID,142,VALID,0.727734,
2016-07-08, 07:30:04,VALID,918.608,VALID,0,INVALID,115.075,VALID,160.517,VALID,20.4244,VALID,137,VALID,1.03477,
2016-07-08, 07:31:04,VALID,918.633,VALID,0,INVALID,115.03,VALID,165.137,VALID,20.4829,VALID,124,VALID,0.857422,
2016-07-08, 07:32:04,VALID,918.632,VALID,0,INVALID,114.832,VALID,168.36,VALID,20.4634,VALID,135,VALID,1.95234,
2016-07-08, 07:33:04,VALID,918.653,VALID,0,INVALID,114.549,VALID,170.831,VALID,20.4829,VALID,145,VALID,1.4668,
2016-07-08, 07:34:04,VALID,918.62,VALID,0,INVALID,114.351,VALID,173.517,VALID,20.5414,VALID,148,VALID,0.471094,
2016-07-08, 07:35:04,VALID,918.618,VALID,0,INVALID,114.199,VALID,176.633,VALID,20.5789,VALID,122,VALID,1.04141,
2016-07-08, 07:36:04,VALID,918.617,VALID,0,INVALID,113.985,VALID,179.212,VALID,20.5984,VALID,159,VALID,1.36328,
2016-07-08, 07:37:04,VALID,918.641,VALID,0,INVALID,113.909,VALID,181.576,VALID,20.6374,VALID,143,VALID,0.755859,
2016-07-08, 07:38:04,VALID,918.601,VALID,0,INVALID,113.879,VALID,184.262,VALID,20.6959,VALID,152,VALID,0.292188,
2016-07-08, 07:39:04,VALID,918.613,VALID,0,INVALID,113.398,VALID,186.84,VALID,20.7154,VALID,157,VALID,1.40234,
2016-07-08, 07:40:04,VALID,918.605,VALID,0,INVALID,113.322,VALID,189.311,VALID,20.7349,VALID,139,VALID,0.947266,
2016-07-08, 07:41:04,VALID,918.588,VALID,0,INVALID,113.192,VALID,191.997,VALID,20.7544,VALID,154,VALID,0.283984,
2016-07-08, 07:42:04,VALID,918.589,VALID,0,INVALID,113.002,VALID,195.006,VALID,20.8324,VALID,157,VALID,0,
2016-07-08, 07:43:04,VALID,918.62,VALID,0,INVALID,112.598,VALID,198.121,VALID,20.8714,VALID,159,VALID,0.827734,
2016-07-08, 07:44:04,VALID,918.619,VALID,0,INVALID,112.598,VALID,201.452,VALID,20.9105,VALID,146,VALID,1.05469,
2016-07-08, 07:45:04,VALID,918.654,VALID,0,INVALID,112.293,VALID,204.568,VALID,20.9674,VALID,166,VALID,1.09922,
2016-07-08, 07:46:04,VALID,918.666,VALID,0,INVALID,112.118,VALID,207.899,VALID,21.047,VALID,163,VALID,0,
2016-07-08, 07:47:04,VALID,918.674,VALID,0,INVALID,111.66,VALID,211.337,VALID,21.125,VALID,157,VALID,0,
2016-07-08, 07:48:04,VALID,918.704,VALID,0,INVALID,110.761,VALID,214.56,VALID,21.164,VALID,149,VALID,0,
2016-07-08, 07:49:04,VALID,918.679,VALID,0,INVALID,110.799,VALID,217.461,VALID,21.1429,VALID,126,VALID,0,
2016-07-08, 07:51:04,VALID,918.715,VALID,0,INVALID,110.509,VALID,224.015,VALID,21.1852,VALID,146,VALID,0,
2016-07-08, 07:52:04,VALID,918.713,VALID,0,INVALID,109.93,VALID,227.238,VALID,21.1055,VALID,151,VALID,0,
2016-07-08, 07:53:04,VALID,918.711,VALID,0,INVALID,109.991,VALID,230.998,VALID,21.047,VALID,148,VALID,0,
2016-07-08, 07:54:04,VALID,918.727,VALID,0,INVALID,110.212,VALID,234.114,VALID,21.047,VALID,144,VALID,0,
2016-07-08, 07:55:04,VALID,918.739,VALID,0,INVALID,110.471,VALID,237.015,VALID,21.0259,VALID,153,VALID,0,
2016-07-08, 07:56:04,VALID,918.756,VALID,0,INVALID,110.555,VALID,240.883,VALID,21.1055,VALID,152,VALID,0,
2016-07-08, 07:57:04,VALID,918.754,VALID,0,INVALID,110.646,VALID,244.751,VALID,21.1624,VALID,152,VALID,0,
2016-07-08, 07:58:04,VALID,918.738,VALID,0,INVALID,110.814,VALID,247.759,VALID,21.2795,VALID,151,VALID,0,
2016-07-08, 07:59:04,VALID,918.765,VALID,0,INVALID,110.326,VALID,252.164,VALID,21.4339,VALID,149,VALID,0,
2016-07-08, 08:00:04,VALID,918.8,VALID,0,INVALID,109.381,VALID,255.602,VALID,21.5542,VALID,153,VALID,0,
2016-07-08, 08:01:04,VALID,918.774,VALID,0,INVALID,109.937,VALID,259.148,VALID,21.6713,VALID,123,VALID,0,
2016-07-08, 08:02:04,VALID,918.756,VALID,0,VALID,104,VALID,263.231,VALID,21.7688,VALID,102,VALID,0,
2016-07-08, 08:03:04,VALID,918.811,VALID,0,VALID,104,VALID,266.776,VALID,21.8079,VALID,71,VALID,0,
2016-07-08, 08:04:04,VALID,918.81,VALID,0,VALID,104,VALID,270.322,VALID,21.8859,VALID,87,VALID,0,
2016-07-08, 08:05:04,VALID,918.799,VALID,0,VALID,100.172,VALID,273.653,VALID,21.9444,VALID,60,VALID,1.09805,
2016-07-08, 08:06:04,VALID,918.84,VALID,0,VALID,101.132,VALID,277.306,VALID,22.0615,VALID,94,VALID,0,
2016-07-08, 08:07:04,VALID,918.832,VALID,0,VALID,99.5542,VALID,280.744,VALID,22.1786,VALID,168,VALID,0,
2016-07-08, 08:08:04,VALID,918.798,VALID,0,VALID,98.6699,VALID,284.182,VALID,22.1591,VALID,156,VALID,0,
2016-07-08, 08:09:04,VALID,918.796,VALID,0,VALID,100.095,VALID,287.727,VALID,22.2176,VALID,167,VALID,0,
2016-07-08, 08:10:04,VALID,918.825,VALID,0,VALID,94.3017,VALID,290.843,VALID,22.2762,VALID,153,VALID,0,
2016-07-08, 08:11:04,VALID,918.815,VALID,0,VALID,94.5532,VALID,294.281,VALID,22.2762,VALID,142,VALID,0,
2016-07-08, 08:12:04,VALID,918.786,VALID,0,VALID,101.14,VALID,297.29,VALID,22.2957,VALID,114,VALID,0.530469,
2016-07-08, 08:13:04,VALID,918.782,VALID,0,VALID,98.4488,VALID,300.835,VALID,22.255,VALID,149,VALID,1.02734,
2016-07-08, 08:14:04,VALID,918.751,VALID,0,VALID,102.726,VALID,304.273,VALID,22.3525,VALID,122,VALID,0,
2016-07-08, 08:15:04,VALID,918.762,VALID,0,VALID,103.9,VALID,307.497,VALID,22.4306,VALID,120,VALID,0.00585938,
2016-07-08, 08:16:04,VALID,918.723,VALID,0,VALID,89.2092,VALID,311.042,VALID,22.4501,VALID,137,VALID,2.29766,
2016-07-08, 08:17:04,VALID,918.659,VALID,0,VALID,90.9931,VALID,314.588,VALID,22.3118,VALID,150,VALID,0.277734,
2016-07-08, 08:18:04,VALID,918.678,VALID,0,VALID,96.5429,VALID,318.348,VALID,22.3313,VALID,114,VALID,0.116797,
2016-07-08, 08:19:04,VALID,918.619,VALID,0,VALID,88.6222,VALID,321.249,VALID,22.333,VALID,141,VALID,0.733984,
2016-07-08, 08:20:04,VALID,918.624,VALID,0,VALID,97.0308,VALID,324.365,VALID,22.3916,VALID,153,VALID,1.00195,
2016-07-08, 08:21:04,VALID,918.583,VALID,0,VALID,91.946,VALID,327.588,VALID,22.255,VALID,155,VALID,1.90273,
2016-07-08, 08:22:04,VALID,918.517,VALID,0,VALID,102.382,VALID,330.704,VALID,22.1964,VALID,155,VALID,0.0621094,
2016-07-08, 08:23:04,VALID,918.57,VALID,0,VALID,99.1578,VALID,334.249,VALID,22.1786,VALID,149,VALID,1.13711,
2016-07-08, 08:24:04,VALID,918.525,VALID,0,VALID,100.522,VALID,337.15,VALID,22.1574,VALID,159,VALID,1.96055,
2016-07-08, 08:25:04,VALID,918.551,VALID,0,VALID,97.069,VALID,341.018,VALID,22.1379,VALID,152,VALID,2.36914,
2016-07-08, 08:26:04,VALID,918.498,VALID,0,VALID,102.405,VALID,344.134,VALID,22.1557,VALID,143,VALID,0.571875,
2016-07-08, 08:27:04,VALID,918.499,VALID,0,VALID,94.2178,VALID,347.357,VALID,22.2142,VALID,146,VALID,1.16172,
2016-07-08, 08:28:04,VALID,918.513,VALID,0,VALID,84.5208,VALID,349.076,VALID,22.1769,VALID,156,VALID,1.17461,
2016-07-08, 08:29:04,VALID,918.504,VALID,0,VALID,85.0392,VALID,350.151,VALID,22.255,VALID,140,VALID,1.51563,
2016-07-08, 08:30:04,VALID,918.471,VALID,0,VALID,87.1966,VALID,353.481,VALID,22.2338,VALID,160,VALID,0.0945313,
2016-07-08, 08:31:04,VALID,918.451,VALID,0,VALID,84.1396,VALID,356.275,VALID,22.2728,VALID,168,VALID,0.357422,
2016-07-08, 08:32:04,VALID,918.42,VALID,0,VALID,85.4737,VALID,357.242,VALID,22.3899,VALID,154,VALID,0.00351562,
2016-07-08, 08:33:04,VALID,918.377,VALID,0,VALID,84.4827,VALID,361.969,VALID,22.4484,VALID,165,VALID,0.687109,
2016-07-08, 08:34:04,VALID,918.372,VALID,0,VALID,83.9948,VALID,363.259,VALID,22.5264,VALID,149,VALID,0.0828125,
2016-07-08, 08:35:04,VALID,918.359,VALID,0,VALID,82.775,VALID,369.06,VALID,22.5281,VALID,151,VALID,1.4832,
2016-07-08, 08:36:04,VALID,918.342,VALID,0,VALID,83.4383,VALID,372.498,VALID,22.5264,VALID,169,VALID,0.152344,
2016-07-08, 08:37:04,VALID,918.372,VALID,0,VALID,84.4141,VALID,378.515,VALID,22.6257,VALID,134,VALID,1.04219,
2016-07-08, 08:38:04,VALID,918.349,VALID,0,VALID,85.3975,VALID,380.342,VALID,22.6435,VALID,133,VALID,0.133594,
2016-07-08, 08:39:04,VALID,918.309,VALID,0,VALID,86.48,VALID,358.424,VALID,22.7606,VALID,155,VALID,0.469141,
2016-07-08, 08:40:04,VALID,918.295,VALID,0,VALID,85.8702,VALID,379.267,VALID,22.8191,VALID,137,VALID,1.22891,
2016-07-08, 08:41:04,VALID,918.277,VALID,0,VALID,85.1688,VALID,389.689,VALID,22.8387,VALID,139,VALID,1.38828,
2016-07-08, 08:42:04,VALID,918.236,VALID,0,VALID,84.9935,VALID,392.805,VALID,22.8777,VALID,145,VALID,0.817187,
2016-07-08, 08:43:04,VALID,918.208,VALID,0,VALID,86.1598,VALID,396.673,VALID,22.977,VALID,140,VALID,0.620313,
2016-07-08, 08:44:04,VALID,918.177,VALID,0,VALID,86.5029,VALID,383.995,VALID,23.0533,VALID,169,VALID,2.07813,
2016-07-08, 08:45:04,VALID,918.161,VALID,0,VALID,85.4432,VALID,377.656,VALID,23.1119,VALID,146,VALID,0.75625,
2016-07-08, 08:46:04,VALID,918.151,VALID,0,VALID,84.9553,VALID,399.681,VALID,23.0924,VALID,162,VALID,1.32695,
2016-07-08, 08:47:04,VALID,918.147,VALID,0,VALID,86.8078,VALID,408.169,VALID,23.1119,VALID,155,VALID,0.256641,
2016-07-08, 08:48:04,VALID,918.143,VALID,0,VALID,84.8486,VALID,408.921,VALID,23.1704,VALID,140,VALID,1.98242,
2016-07-08, 08:49:04,VALID,918.124,VALID,0,VALID,85.9235,VALID,413.004,VALID,23.1899,VALID,150,VALID,1.38789,
2016-07-08, 08:50:04,VALID,918.096,VALID,0,VALID,84.01,VALID,415.153,VALID,23.229,VALID,128,VALID,1.24414,
2016-07-08, 08:51:04,VALID,918.048,VALID,0,VALID,82.7979,VALID,415.69,VALID,23.2875,VALID,153,VALID,0.782812,
2016-07-08, 08:52:04,VALID,918.096,VALID,0,VALID,84.4903,VALID,416.012,VALID,23.4046,VALID,155,VALID,0.753125,
2016-07-08, 08:53:04,VALID,918.089,VALID,0,VALID,82.5463,VALID,416.979,VALID,23.4241,VALID,134,VALID,0.352734,
2016-07-08, 08:54:04,VALID,918.06,VALID,0,VALID,82.4854,VALID,423.855,VALID,23.4632,VALID,133,VALID,2.22266,
2016-07-08, 08:55:04,VALID,918.026,VALID,0,VALID,83.9948,VALID,420.417,VALID,23.4632,VALID,125,VALID,1.0957,
2016-07-08, 08:56:04,VALID,918.036,VALID,0,VALID,83.0266,VALID,425.574,VALID,23.5217,VALID,132,VALID,1.62109,
2016-07-08, 08:57:04,VALID,918.057,VALID,0,VALID,82.0584,VALID,425.789,VALID,23.5803,VALID,151,VALID,1.45586,
2016-07-08, 08:58:04,VALID,918.031,VALID,0,VALID,81.9517,VALID,428.153,VALID,23.5785,VALID,137,VALID,0.123438,
2016-07-08, 08:59:04,VALID,918.049,VALID,0,VALID,81.4486,VALID,426.112,VALID,23.6779,VALID,113,VALID,0.905078,
2016-07-08, 09:00:04,VALID,918.026,VALID,0,VALID,81.3342,VALID,437.93,VALID,23.7542,VALID,164,VALID,1.77539,
2016-07-08, 09:01:04,VALID,918.027,VALID,0,VALID,81.3037,VALID,440.938,VALID,23.8731,VALID,103,VALID,0.00820312,
2016-07-08, 09:02:04,VALID,918.038,VALID,0,VALID,78.7728,VALID,446.74,VALID,24.0488,VALID,136,VALID,0.674609,
2016-07-08, 09:03:04,VALID,918.027,VALID,0,VALID,78.2696,VALID,447.6,VALID,24.1055,VALID,151,VALID,0.215625,
2016-07-08, 09:04:04,VALID,917.996,VALID,0,VALID,78.9633,VALID,446.74,VALID,24.1073,VALID,137,VALID,0.769141,
2016-07-08, 09:05:04,VALID,918.021,VALID,0,VALID,79.1158,VALID,452.542,VALID,24.086,VALID,130,VALID,0.495703,
2016-07-08, 09:06:04,VALID,918.011,VALID,0,VALID,78.1934,VALID,454.476,VALID,24.1269,VALID,126,VALID,1.13047,
2016-07-08, 09:07:04,VALID,918.002,VALID,0,VALID,79.5275,VALID,453.402,VALID,24.125,VALID,124,VALID,0.116797,
2016-07-08, 09:08:04,VALID,918.071,VALID,0,VALID,75.9292,VALID,458.989,VALID,24.2226,VALID,105,VALID,1.08594,
2016-07-08, 09:09:04,VALID,918.025,VALID,0,VALID,76.9965,VALID,455.55,VALID,24.2812,VALID,113,VALID,1.53711,
2016-07-08, 09:10:04,VALID,918.05,VALID,0,VALID,76.5238,VALID,467.691,VALID,24.3007,VALID,138,VALID,1.47344,
2016-07-08, 09:11:04,VALID,918.12,VALID,0,VALID,76.783,VALID,463.609,VALID,24.2031,VALID,157,VALID,0.916016,
2016-07-08, 09:12:04,VALID,918.125,VALID,0,VALID,77.6902,VALID,464.79,VALID,24.125,VALID,138,VALID,0.669141,
2016-07-08, 09:13:04,VALID,918.166,VALID,0,VALID,77.3319,VALID,479.94,VALID,24.2421,VALID,169,VALID,0.0328125,
2016-07-08, 09:14:04,VALID,918.175,VALID,0,VALID,76.0664,VALID,480.692,VALID,24.3593,VALID,197,VALID,0.0699219,
2016-07-08, 09:15:04,VALID,918.197,VALID,0,VALID,74.1377,VALID,483.378,VALID,24.535,VALID,194,VALID,1.26641,
2016-07-08, 09:16:04,VALID,918.208,VALID,0,VALID,74.0157,VALID,485.849,VALID,24.6326,VALID,199,VALID,0.285547,
2016-07-08, 09:17:04,VALID,918.22,VALID,0,VALID,73.787,VALID,488.857,VALID,24.6326,VALID,158,VALID,1.26602,
2016-07-08, 09:18:04,VALID,918.209,VALID,0,VALID,72.5292,VALID,495.411,VALID,24.6131,VALID,177,VALID,0.644531,
2016-07-08, 09:19:04,VALID,918.237,VALID,0,VALID,72.9942,VALID,497.238,VALID,24.574,VALID,146,VALID,0.203516,
2016-07-08, 09:20:04,VALID,918.18,VALID,0,VALID,73.0857,VALID,497.667,VALID,24.5722,VALID,95,VALID,0.666406,
2016-07-08, 09:21:04,VALID,918.202,VALID,0,VALID,74.0539,VALID,500.783,VALID,24.6735,VALID,142,VALID,0.680469,
2016-07-08, 09:22:04,VALID,918.206,VALID,0,VALID,72.918,VALID,502.395,VALID,24.654,VALID,81,VALID,1.31836,
2016-07-08, 09:23:04,VALID,918.193,VALID,0,VALID,71.6144,VALID,502.717,VALID,24.6735,VALID,142,VALID,1.05703,
2016-07-08, 09:24:04,VALID,918.213,VALID,0,VALID,72.7198,VALID,505.618,VALID,24.6521,VALID,126,VALID,1.19141,
2016-07-08, 09:25:04,VALID,918.22,VALID,0,VALID,70.8673,VALID,507.982,VALID,24.6912,VALID,163,VALID,1.07187,
2016-07-08, 09:26:04,VALID,918.215,VALID,0,VALID,70.7987,VALID,511.85,VALID,24.6912,VALID,174,VALID,0.811328,
2016-07-08, 09:27:04,VALID,918.213,VALID,0,VALID,73.0323,VALID,517.651,VALID,24.7888,VALID,120,VALID,0.0546875,
2016-07-08, 09:28:04,VALID,918.202,VALID,0,VALID,72.9637,VALID,520.767,VALID,24.945,VALID,91,VALID,0.2875,
2016-07-08, 09:29:04,VALID,918.212,VALID,0,VALID,70.4556,VALID,522.164,VALID,24.9059,VALID,87,VALID,1.61289,
2016-07-08, 09:30:04,VALID,918.214,VALID,0,VALID,68.4811,VALID,522.916,VALID,24.8474,VALID,95,VALID,0.991797,
2016-07-08, 09:31:04,VALID,918.231,VALID,0,VALID,71.0502,VALID,523.453,VALID,24.9255,VALID,67,VALID,0,
2016-07-08, 09:32:04,VALID,918.226,VALID,0,VALID,67.9399,VALID,522.701,VALID,25.0036,VALID,128,VALID,1.76641,
2016-07-08, 09:33:04,VALID,918.246,VALID,0,VALID,69.335,VALID,526.032,VALID,25.0231,VALID,115,VALID,0,
2016-07-08, 09:34:04,VALID,918.284,VALID,0,VALID,68.9386,VALID,532.908,VALID,25.1793,VALID,121,VALID,0.362109,
2016-07-08, 09:35:04,VALID,918.292,VALID,0,VALID,67.978,VALID,533.875,VALID,25.1422,VALID,156,VALID,1.85664,
2016-07-08, 09:36:04,VALID,918.272,VALID,0,VALID,67.4062,VALID,526.891,VALID,24.8864,VALID,158,VALID,1.38437,
2016-07-08, 09:37:04,VALID,918.289,VALID,0,VALID,69.1368,VALID,535.702,VALID,24.8278,VALID,148,VALID,0.599219,
2016-07-08, 09:38:04,VALID,918.293,VALID,0,VALID,70.6691,VALID,538.173,VALID,24.9255,VALID,136,VALID,0.520312,
2016-07-08, 09:39:04,VALID,918.285,VALID,0,VALID,68.4125,VALID,543.222,VALID,25.0036,VALID,159,VALID,0.585156,
2016-07-08, 09:40:04,VALID,918.248,VALID,0,VALID,70.0592,VALID,547.628,VALID,25.0426,VALID,183,VALID,0.0796875,
2016-07-08, 09:41:04,VALID,918.254,VALID,0,VALID,69.8991,VALID,548.917,VALID,25.1988,VALID,176,VALID,0,
2016-07-08, 09:42:04,VALID,918.256,VALID,0,VALID,67.7798,VALID,548.702,VALID,25.3355,VALID,163,VALID,0.630859,
2016-07-08, 09:43:04,VALID,918.246,VALID,0,VALID,66.8269,VALID,554.504,VALID,25.2574,VALID,154,VALID,0.886719,
2016-07-08, 09:44:04,VALID,918.268,VALID,0,VALID,67.0556,VALID,558.587,VALID,25.2574,VALID,181,VALID,1.84805,
2016-07-08, 09:45:04,VALID,918.216,VALID,0,VALID,68.1381,VALID,562.347,VALID,25.275,VALID,170,VALID,2.47539,
2016-07-08, 09:46:04,VALID,918.217,VALID,0,VALID,68.7632,VALID,564.173,VALID,25.3746,VALID,190,VALID,0.130859,
2016-07-08, 09:47:04,VALID,918.185,VALID,0,VALID,66.9717,VALID,569.223,VALID,25.4917,VALID,190,VALID,0.413672,
2016-07-08, 09:48:04,VALID,918.174,VALID,0,VALID,68.0085,VALID,569.438,VALID,25.5698,VALID,159,VALID,0.429297,
2016-07-08, 09:49:04,VALID,918.164,VALID,0,VALID,66.5982,VALID,570.62,VALID,25.5894,VALID,158,VALID,0.639453,
2016-07-08, 09:50:04,VALID,918.144,VALID,0,VALID,68.3134,VALID,569.223,VALID,25.6265,VALID,128,VALID,0,
2016-07-08, 09:51:04,VALID,918.128,VALID,0,VALID,67.2385,VALID,573.306,VALID,25.7827,VALID,143,VALID,1.48711,
2016-07-08, 09:52:04,VALID,918.087,VALID,0,VALID,67.6731,VALID,578.571,VALID,25.7456,VALID,155,VALID,0.4875,
2016-07-08, 09:53:04,VALID,918.097,VALID,0,VALID,67.0403,VALID,580.612,VALID,25.8823,VALID,143,VALID,0.0078125,
2016-07-08, 09:54:04,VALID,918.081,VALID,0,VALID,65.7215,VALID,583.191,VALID,25.8608,VALID,175,VALID,0.137109,
2016-07-08, 09:55:04,VALID,918.08,VALID,0,VALID,65.9197,VALID,586.091,VALID,25.8237,VALID,171,VALID,0.175391,
2016-07-08, 09:56:04,VALID,918.044,VALID,0,VALID,66.8192,VALID,584.48,VALID,25.8628,VALID,134,VALID,0.223047,
2016-07-08, 09:57:04,VALID,918.05,VALID,0,VALID,65.8892,VALID,589.53,VALID,26.019,VALID,180,VALID,0,
2016-07-08, 09:58:04,VALID,918.013,VALID,0,VALID,65.0659,VALID,588.992,VALID,26.1538,VALID,177,VALID,0,
2016-07-08, 09:59:04,VALID,918.033,VALID,0,VALID,63.6708,VALID,588.563,VALID,26.2124,VALID,186,VALID,0.0925781,
2016-07-08, 10:00:04,VALID,917.989,VALID,0,VALID,63.8461,VALID,593.612,VALID,26.2514,VALID,165,VALID,0.671484,
2016-07-08, 10:01:04,VALID,917.98,VALID,0,VALID,64.5703,VALID,595.654,VALID,26.3686,VALID,190,VALID,0.294141,
2016-07-08, 10:02:04,VALID,917.999,VALID,0,VALID,62.5882,VALID,594.257,VALID,26.4468,VALID,200,VALID,0.0289063,
2016-07-08, 10:03:04,VALID,917.961,VALID,0,VALID,64.6771,VALID,596.191,VALID,26.4468,VALID,207,VALID,0.0121094,
2016-07-08, 10:04:04,VALID,917.986,VALID,0,VALID,62.7941,VALID,599.951,VALID,26.5054,VALID,188,VALID,0.303125,
2016-07-08, 10:05:04,VALID,917.976,VALID,0,VALID,62.9618,VALID,608.869,VALID,26.4077,VALID,199,VALID,0,
2016-07-08, 10:06:04,VALID,917.962,VALID,0,VALID,63.2744,VALID,609.191,VALID,26.3686,VALID,174,VALID,0,
2016-07-08, 10:07:04,VALID,917.938,VALID,0,VALID,64.273,VALID,613.596,VALID,26.3491,VALID,134,VALID,0,
2016-07-08, 10:08:04,VALID,917.956,VALID,0,VALID,65.6986,VALID,613.811,VALID,26.2905,VALID,172,VALID,0,
2016-07-08, 10:09:04,VALID,917.982,VALID,0,VALID,63.747,VALID,618.109,VALID,26.4057,VALID,167,VALID,0.379687,
2016-07-08, 10:10:04,VALID,917.98,VALID,0,VALID,62.8703,VALID,622.299,VALID,26.4643,VALID,193,VALID,0,
2016-07-08, 10:11:04,VALID,917.943,VALID,0,VALID,62.4205,VALID,625.63,VALID,26.6616,VALID,195,VALID,0,
2016-07-08, 10:12:04,VALID,917.931,VALID,0,VALID,62.5959,VALID,629.068,VALID,26.7788,VALID,183,VALID,0,
2016-07-08, 10:13:04,VALID,917.93,VALID,0,VALID,62.9008,VALID,631.432,VALID,26.8765,VALID,229,VALID,0,
2016-07-08, 10:14:04,VALID,917.956,VALID,0,VALID,62.2528,VALID,634.225,VALID,26.9546,VALID,164,VALID,0,
2016-07-08, 10:15:04,VALID,917.939,VALID,0,VALID,61.2008,VALID,633.043,VALID,27.0719,VALID,195,VALID,0,
2016-07-08, 10:16:04,VALID,917.885,VALID,0,VALID,59.6075,VALID,636.696,VALID,27.1479,VALID,190,VALID,0,
2016-07-08, 10:17:04,VALID,917.903,VALID,0,VALID,60.2479,VALID,634.01,VALID,27.2477,VALID,147,VALID,1.02383,
2016-07-08, 10:18:04,VALID,917.901,VALID,0,VALID,60.7434,VALID,641.209,VALID,27.1695,VALID,160,VALID,0,
2016-07-08, 10:19:04,VALID,917.901,VALID,0,VALID,59.3712,VALID,643.787,VALID,27.2281,VALID,173,VALID,0,
2016-07-08, 10:20:04,VALID,917.86,VALID,0,VALID,60.7891,VALID,640.457,VALID,27.4019,VALID,137,VALID,0,
2016-07-08, 10:21:04,VALID,917.846,VALID,0,VALID,60.9949,VALID,634.333,VALID,27.5408,VALID,141,VALID,0.00585938,
2016-07-08, 10:22:04,VALID,917.851,VALID,0,VALID,58.7765,VALID,637.341,VALID,27.5191,VALID,188,VALID,0.151562,
2016-07-08, 10:23:04,VALID,917.864,VALID,0,VALID,59.5313,VALID,644.862,VALID,27.48,VALID,231,VALID,0,
2016-07-08, 10:24:04,VALID,917.83,VALID,0,VALID,60.1106,VALID,646.473,VALID,27.4256,VALID,179,VALID,0,
2016-07-08, 10:25:04,VALID,917.842,VALID,0,VALID,60.1869,VALID,651.308,VALID,27.4235,VALID,218,VALID,0,
2016-07-08, 10:26:04,VALID,917.827,VALID,0,VALID,59.4779,VALID,653.457,VALID,27.5408,VALID,188,VALID,0,
2016-07-08, 10:27:04,VALID,917.818,VALID,0,VALID,58.9671,VALID,654.854,VALID,27.6385,VALID,208,VALID,0,
2016-07-08, 10:28:04,VALID,917.847,VALID,0,VALID,60.0725,VALID,656.573,VALID,27.836,VALID,189,VALID,0,
2016-07-08, 10:29:04,VALID,917.819,VALID,0,VALID,57.4577,VALID,659.366,VALID,27.9316,VALID,180,VALID,0,
2016-07-08, 10:30:04,VALID,917.784,VALID,0,VALID,59.8591,VALID,658.829,VALID,27.9141,VALID,66,VALID,0,
2016-07-08, 10:31:04,VALID,917.779,VALID,0,VALID,58.7232,VALID,658.722,VALID,27.9728,VALID,126,VALID,0,
2016-07-08, 10:32:04,VALID,917.724,VALID,0,VALID,56.7335,VALID,659.904,VALID,27.9706,VALID,199,VALID,0.115625,
2016-07-08, 10:33:04,VALID,917.725,VALID,0,VALID,56.5886,VALID,661.623,VALID,27.8729,VALID,194,VALID,0,
2016-07-08, 10:34:04,VALID,917.725,VALID,0,VALID,56.055,VALID,663.019,VALID,27.912,VALID,208,VALID,0,
2016-07-08, 10:35:04,VALID,917.694,VALID,0,VALID,56.6115,VALID,668.284,VALID,28.0097,VALID,211,VALID,0,
2016-07-08, 10:36:04,VALID,917.708,VALID,0,VALID,57.8846,VALID,674.838,VALID,28.09,VALID,184,VALID,0,
2016-07-08, 10:37:04,VALID,917.676,VALID,0,VALID,57.4958,VALID,622.084,VALID,28.0683,VALID,195,VALID,0,
2016-07-08, 10:38:04,VALID,917.668,VALID,0,VALID,56.1922,VALID,662.052,VALID,28.1661,VALID,180,VALID,0,
2016-07-08, 10:39:04,VALID,917.629,VALID,0,VALID,55.2621,VALID,669.251,VALID,28.2051,VALID,210,VALID,0,
2016-07-08, 10:40:04,VALID,917.641,VALID,0,VALID,54.5455,VALID,670.755,VALID,28.0488,VALID,161,VALID,0,
2016-07-08, 10:41:04,VALID,917.595,VALID,0,VALID,55.3765,VALID,669.573,VALID,27.9706,VALID,159,VALID,0,
2016-07-08, 10:42:04,VALID,917.577,VALID,0,VALID,56.7868,VALID,665.598,VALID,28.2051,VALID,127,VALID,0,
2016-07-08, 10:43:04,VALID,917.603,VALID,0,VALID,54.111,VALID,654.854,VALID,28.2442,VALID,127,VALID,0,
2016-07-08, 10:44:04,VALID,917.568,VALID,0,VALID,57.7169,VALID,676.879,VALID,28.0879,VALID,107,VALID,0,
2016-07-08, 10:45:04,VALID,917.551,VALID,0,VALID,57.0765,VALID,683.003,VALID,28.1856,VALID,98,VALID,0,